Weather home | Your neighborhood | Marine | Radar | Hurricane | Almanac

Daily weather history


Statistical History for Monday, February 25, 2013

St. Petersburg Airport, FL


  Actual Average Record
Temperature
Mean Temperature -  
Max Temperature 71 °F 85 °F (1962)
Min Temperature 55 °F 40 °F (1989)
Cooling Degree Days    
Growing Degree Days 24 (Base - )  
Moisture
Dew Point   
Average Humidity    
Maximum Humidity    
Minimum Humidity    
Precipitation
Precipitation - - ()
Wind
Wind Speed   
Max Wind Speed   
Max Gust Speed   
Visibility   
Events   
Averages and records for this station are not official NWS values.
Key: T is trace of precipitation, MM is missing value
Source: NWS Daily Summary
Seasonal Weather Averages
Time(EST)TemperatureDew PointHumidity Sea Level Pressure Visibility Wind DirectionWind SpeedGust SpeedPrecipitationEventsConditions
12:00 AM 66.2 °F 64.4 °F 94% 29.91 in 0.5 miles SE 4.6 mph - N/A Fog Fog
12:11 AM 69.8 °F 68.0 °F 94% 29.91 in 2.0 miles SE 5.8 mph - N/A   Overcast
12:23 AM 69.8 °F 69.8 °F 100% 29.91 in 3.0 miles SE 4.6 mph - N/A   Overcast
12:53 AM 71.1 °F 69.1 °F 93% 29.91 in 5.0 miles SE 5.8 mph - N/A   Overcast
1:07 AM 71.6 °F 69.8 °F 94% 29.91 in 6.0 miles SE 4.6 mph - N/A   Overcast
1:42 AM 71.6 °F 68.0 °F 88% 29.90 in 5.0 miles East 3.5 mph - N/A   Overcast
1:53 AM 70.0 °F 68.0 °F 93% 29.91 in 4.0 miles East 4.6 mph - N/A   Overcast
2:10 AM 69.8 °F 68.0 °F 94% 29.91 in 4.0 miles SE 3.5 mph - N/A   Mostly Cloudy
2:28 AM 69.8 °F 68.0 °F 94% 29.90 in 5.0 miles East 3.5 mph - N/A   Overcast
2:42 AM 69.8 °F 68.0 °F 94% 29.88 in 5.0 miles East 4.6 mph - N/A   Overcast
2:53 AM 70.0 °F 68.0 °F 93% 29.88 in 6.0 miles East 6.9 mph - N/A   Overcast
3:37 AM 69.8 °F 68.0 °F 94% 29.87 in 5.0 miles ESE 8.1 mph - N/A   Overcast
3:53 AM 70.0 °F 68.0 °F 93% 29.87 in 5.0 miles SE 5.8 mph - N/A   Overcast
4:53 AM 69.1 °F 68.0 °F 96% 29.86 in 4.0 miles ESE 4.6 mph - N/A   Overcast
5:53 AM 69.1 °F 66.9 °F 93% 29.85 in 4.0 miles SE 5.8 mph - N/A   Scattered Clouds
6:53 AM 68.0 °F 66.0 °F 93% 29.89 in 6.0 miles SSE 4.6 mph - N/A   Overcast
7:53 AM 69.1 °F 66.9 °F 93% 29.89 in 6.0 miles SE 8.1 mph - N/A   Mostly Cloudy
8:53 AM 70.0 °F 66.9 °F 90% 29.90 in 7.0 miles SSE 8.1 mph - N/A   Overcast
9:32 AM 71.6 °F 68.0 °F 88% 29.90 in 7.0 miles SE 8.1 mph - N/A   Mostly Cloudy
9:53 AM 73.0 °F 66.9 °F 81% 29.89 in 8.0 miles SE 9.2 mph - N/A   Partly Cloudy
10:02 AM 73.4 °F 68.0 °F 83% 29.89 in 10.0 miles SE 10.4 mph - N/A   Partly Cloudy
10:53 AM 75.9 °F 66.9 °F 74% 29.89 in 10.0 miles SE 8.1 mph - N/A   Partly Cloudy
11:53 AM 80.1 °F 66.0 °F 62% 29.87 in 10.0 miles SSE 11.5 mph - N/A   Partly Cloudy
12:53 PM 82.0 °F 64.9 °F 56% 29.84 in 10.0 miles SSE 11.5 mph - N/A   Mostly Cloudy
1:53 PM 81.0 °F 66.9 °F 62% 29.82 in 10.0 miles South 13.8 mph - N/A   Mostly Cloudy
2:53 PM 82.9 °F 68.0 °F 60% 29.81 in 8.0 miles South 15.0 mph - N/A   Mostly Cloudy
3:53 PM 80.1 °F 68.0 °F 67% 29.81 in 10.0 miles SSW 17.3 mph - N/A   Overcast
4:53 PM 79.0 °F 68.0 °F 69% 29.80 in 10.0 miles SSW 13.8 mph 23.0 mph N/A   Scattered Clouds
5:53 PM 78.1 °F 69.1 °F 74% 29.79 in 10.0 miles SSW 15.0 mph - N/A   Overcast
6:53 PM 75.9 °F 69.1 °F 79% 29.80 in 10.0 miles South 12.7 mph - N/A   Scattered Clouds
7:53 PM 75.0 °F 69.1 °F 82% 29.81 in 10.0 miles South 5.8 mph - N/A   Overcast
8:53 PM 73.9 °F 68.0 °F 82% 29.81 in 10.0 miles South 6.9 mph - N/A   Mostly Cloudy
9:53 PM 73.0 °F 68.0 °F 84% 29.79 in 10.0 miles SSE 8.1 mph - N/A   Clear
10:53 PM 73.0 °F 68.0 °F 84% 29.81 in 10.0 miles South 9.2 mph - N/A   Clear
11:53 PM 73.9 °F 68.0 °F 82% 29.80 in 10.0 miles South 9.2 mph - N/A   Overcast
ADVERTISEMENT
Enter city or zip code to search weather conditions:


  • 490 First Avenue South
  • St. Petersburg, FL 33701
  • 727-893-8111